Probability
5 7 11 16 19 19 17 15 15 16 17 17 17 15 15 14 10 7 3 1 1 3 4 4 5 6 6 6 5 5 4 2 1 0 0 0 1 2 2 1 0 0 0
3 4 6 10 14 15 16 15 16 17 18 17 16 14 14 11 8 4 2 2 2 3 4 5 5 6 5 4 4 4 3 1 0 0 0 0 0 1 1 0 0 0 0
1 1 2 5 8 11 13 14 15 16 17 16 15 14 13 9 5 2 2 3 3 3 4 5 5 4 3 3 2 2 1 0 0 0 0 0 0 0 0 0 0 0 0
0 0 1 2 4 8 11 12 13 13 14 14 14 15 13 9 5 3 2 3 3 3 3 4 4 2 1 1 1 1 0 0 0 0 0 0 0 0 0 0 0 0 0
0 0 1 1 2 4 9 11 11 11 12 13 14 15 14 10 6 4 2 1 1 2 3 4 3 2 1 0 0 0 0 0 0 0 0 0 0 0 0 0 0 0 0
0 1 2 2 1 2 6 9 11 11 11 10 11 12 12 9 6 3 2 1 2 3 3 3 3 3 2 1 1 0 0 0 0 0 0 0 0 0 0 0 0 0 0
0 1 2 3 2 2 4 7 8 9 9 8 7 8 9 7 5 4 3 3 4 4 3 3 3 3 3 2 1 0 0 0 0 0 0 0 0 0 0 0 0 0 0
0 0 1 3 3 2 3 4 5 6 6 5 5 5 5 6 6 5 4 4 4 4 3 2 2 3 3 3 1 0 0 0 0 0 0 0 0 0 0 0 0 0 0
0 0 1 2 2 1 1 3 4 4 4 4 5 4 4 5 7 6 4 3 3 3 3 2 2 2 3 2 1 0 0 0 0 0 0 0 0 0 0 0 0 0 0
0 0 0 1 1 0 1 2 3 3 3 4 4 4 3 4 5 4 2 2 2 2 3 3 3 2 2 2 1 0 0 0 0 0 0 0 0 0 0 0 0 0 0
0 0 0 0 0 0 0 1 1 3 3 3 4 3 3 3 3 2 1 0 0 1 2 4 4 3 1 1 0 0 0 0 0 0 0 0 0 0 0 0 0 0 0
0 0 0 0 0 0 0 0 1 2 3 3 3 3 2 1 1 1 0 0 0 1 2 3 4 3 1 0 0 0 0 0 0 0 0 0 0 0 0 0 0 0 0
0 0 0 0 0 0 1 1 1 2 3 3 3 2 1 0 0 0 0 0 0 0 1 3 3 3 1 0 0 0 0 0 0 0 0 0 0 0 0 0 0 0 0
0 0 0 0 1 1 1 1 1 2 3 3 3 1 0 0 0 0 0 0 0 0 1 2 3 2 1 0 0 0 0 0 0 0 0 0 0 0 0 0 0 0 0
0 0 0 0 1 1 1 0 1 1 2 2 2 1 0 1 1 0 0 0 0 0 0 1 2 2 1 0 0 0 0 0 0 0 0 0 0 0 0 0 0 0 0
0 0 0 0 0 0 0 0 0 0 1 1 1 0 0 1 1 0 0 0 0 0 0 0 1 1 0 0 0 0 0 0 0 0 0 0 0 0 0 0 0 0 0
0 0 0 0 0 0 0 0 0 0 0 0 0 0 0 1 1 0 0 0 0 0 0 0 0 0 0 0 0 0 0 0 0 0 0 0 0 0 0 0 0 0 0
0 0 0 0 0 0 0 0 0 0 0 0 0 0 0 0 0 0 0 0 0 0 0 0 0 0 0 0 0 0 0 0 0 0 0 0 0 0 0 0 0 0 0
0 0 0 0 0 0 0 0 0 0 0 0 0 0 0 0 0 0 0 0 0 0 0 0 0 0 0 0 0 0 0 0 0 0 0 0 0 0 0 0 0 0 0
0 0 0 0 0 0 0 0 0 0 0 0 0 0 0 0 0 0 0 0 0 0 0 0 0 0 0 0 0 0 0 0 0 0 0 0 0 0 0 0 0 0 0
0 0 0 0 0 0 0 0 0 0 0 0 0 0 0 0 0 0 0 0 0 0 0 0 0 0 0 0 0 0 0 0 0 0 0 0 0 0 0 0 0 0 0
0 0 0 0 0 0 0 0 0 0 0 0 0 0 0 0 0 0 0 0 0 0 0 0 0 0 0 0 0 0 0 0 0 0 0 0 0 0 0 0 0 0 0
0 0 0 0 0 0 0 0 0 0 0 0 0 0 0 0 0 0 0 0 0 0 0 0 0 0 0 0 0 0 0 0 0 0 0 0 0 0 0 0 0 0 0
0 0 0 0 0 0 0 0 0 0 0 0 0 0 0 0 0 0 0 0 0 0 0 0 0 0 0 0 0 0 0 0 0 0 0 0 0 0 0 0 0 0 0
0 0 0 0 0 0 0 0 0 0 0 0 0 0 0 0 0 0 0 0 0 0 0 0 0 0 0 0 0 0 0 0 0 0 0 0 0 0 0 0 0 0 0
0 0 0 0 0 0 0 0 0 0 0 0 0 0 0 0 0 0 0 0 0 0 0 0 0 0 0 0 0 0 0 0 0 0 0 0 0 0 0 0 0 0 0
Wind_Speed
4 5 5 3 4 3 3 2 2 1 1 1 1 1 1 1 1 1 2 2 2 2 1 1 1 1 1 1 1 1 2 1 1 1 2 2 2 2 2 2 2 3 3
5 5 5 4 3 3 2 1 1 1 1 1 1 1 1 1 1 2 2 2 2 1 2 2 1 1 1 1 1 0 1 1 0 0 0 2 3 2 2 2 2 3 2
3 4 4 4 3 2 1 1 1 1 0 1 1 0 1 1 1 2 2 2 2 2 2 2 2 1 1 1 1 1 1 1 1 1 1 1 2 2 2 2 2 2 2
2 3 3 4 3 2 1 1 1 1 1 0 1 1 1 1 2 2 2 2 2 2 2 1 2 1 1 2 2 1 1 1 1 1 1 2 2 2 2 2 2 2 3
2 3 3 3 3 3 2 1 1 1 1 1 1 1 1 1 1 1 3 3 2 2 2 1 1 1 1 2 2 1 1 2 2 2 1 1 1 2 2 4 3 3 3
2 3 3 3 4 4 3 2 2 1 1 1 1 1 1 1 1 1 3 3 2 2 2 1 1 2 2 2 2 2 2 2 2 2 2 2 2 2 3 3 3 4 3
1 2 3 4 4 5 4 3 2 2 2 2 2 2 2 2 2 2 3 3 2 2 3 2 2 2 2 2 2 2 2 2 2 3 2 2 3 2 2 3 3 3 3
2 2 2 3 3 4 4 3 3 3 2 2 3 3 2 1 2 2 3 3 3 3 3 2 2 2 2 2 1 1 2 2 2 3 3 2 3 2 3 3 2 3 3
2 3 3 3 3 3 3 3 3 3 3 3 2 2 3 2 2 3 3 3 3 2 2 2 2 2 2 1 1 1 1 1 2 2 3 2 2 2 3 3 3 3 3
3 3 3 3 3 3 3 3 3 4 4 2 2 2 3 3 3 2 3 3 3 2 2 2 2 2 1 1 1 1 1 1 2 2 2 2 2 2 2 2 2 3 3
4 4 4 3 3 3 3 3 3 3 3 3 2 2 3 3 2 2 2 2 2 2 2 2 1 2 2 2 1 2 2 2 2 2 2 3 3 2 2 2 2 2 3
3 3 3 3 3 3 3 3 3 3 3 3 2 2 2 3 3 3 3 2 2 2 2 1 1 2 2 2 2 3 2 2 3 3 3 3 2 2 2 2 2 3 3
4 4 4 3 3 3 3 3 3 4 3 2 2 2 2 2 3 3 3 2 2 2 2 1 1 2 2 2 2 2 2 2 2 3 3 3 3 3 2 2 3 2 3
4 4 4 4 4 4 3 4 4 4 3 3 2 3 3 3 3 3 3 2 2 2 2 2 2 2 2 2 2 2 2 2 3 2 3 3 3 4 3 3 3 3 3
4 4 4 4 4 4 4 4 4 4 3 3 3 3 3 3 3 2 3 2 2 2 2 2 2 2 2 2 2 2 2 2 3 3 3 3 4 4 3 3 3 3 3
5 5 4 4 4 4 4 4 4 4 3 3 3 4 3 3 3 3 3 2 2 2 2 2 2 3 3 4 4 2 2 2 3 3 4 4 4 5 5 5 5 4 4
6 5 5 4 5 4 4 4 4 4 3 3 3 3 3 3 3 3 2 2 2 2 2 2 2 3 4 5 5 4 2 2 2 3 4 4 4 4 4 6 7 6 6
5 5 5 4 4 4 4 4 4 3 3 3 3 3 2 3 3 2 2 2 2 2 2 3 3 3 5 6 5 5 2 2 3 3 4 4 5 5 5 5 6 6 5
5 4 4 4 4 4 4 4 4 3 3 3 3 3 2 2 3 2 2 2 2 2 2 3 3 3 5 6 5 4 2 2 4 4 3 4 5 7 6 4 5 6 6
4 4 4 3 3 4 3 3 4 4 4 3 3 3 2 2 2 2 2 2 2 2 3 3 3 3 4 6 5 3 1 2 4 4 4 4 5 7 6 4 4 6 6
5 4 4 3 4 4 3 3 4 4 4 3 3 3 2 2 2 2 2 2 2 2 3 3 4 3 4 5 5 4 1 2 3 3 4 4 7 7 7 5 4 6 6
5 4 4 4 4 3 2 3 4 4 3 3 3 3 3 3 2 1 2 2 2 2 3 3 4 4 4 4 4 5 3 2 2 3 4 5 8 8 8 5 5 6 5
5 4 4 4 4 3 2 3 5 4 3 3 3 3 3 2 2 1 1 2 2 2 2 2 3 4 4 4 5 5 5 4 2 3 5 7 8 7 5 5 6 4 3
4 4 3 4 5 4 3 4 4 3 2 2 3 3 2 2 3 2 1 1 1 2 2 2 3 4 4 4 4 3 3 4 3 3 5 6 6 5 4 5 4 3 2
4 3 3 4 5 5 4 4 3 1 1 2 2 2 2 1 2 2 1 1 1 1 2 2 2 2 4 5 5 3 3 3 3 3 3 3 4 5 4 4 4 3 3
4 3 3 4 5 4 4 4 2 1 1 2 2 2 1 1 1 2 3 4 2 3 2 1 2 2 3 5 5 5 5 5 4 2 3 4 4 5 5 5 4 4 4
Wind_Direction
22 24 28 45 64 64 73 101 119 115 113 143 195 212 242 262 268 258 258 253 242 234 218 234 251 235 228 246 253 257 283 279 292 311 312 300 277 264 256 253 243 244 246
23 16 17 34 52 64 61 70 115 140 143 186 207 207 208 234 246 265 278 270 255 243 226 212 218 219 238 270 260 239 245 274 297 163 298 314 314 301 277 266 248 253 252
14 7 9 9 23 36 41 354 348 19 144 169 137 33 40 356 335 308 294 286 270 248 240 222 214 219 204 235 244 227 206 243 259 198 183 206 252 294 293 275 268 267 260
9 6 8 2 357 342 353 358 5 0 340 117 162 183 200 252 271 292 287 292 276 257 245 220 205 206 214 244 249 221 207 199 250 260 231 226 214 236 291 295 285 281 271
9 6 0 349 347 350 2 3 12 12 348 331 230 202 248 264 284 320 315 301 287 276 267 238 212 213 225 240 250 239 215 200 217 229 226 226 239 227 238 278 295 298 276
15 1 358 358 351 352 356 352 347 321 339 340 325 281 260 273 305 323 305 304 296 286 282 259 229 230 236 238 240 232 224 223 222 230 220 212 218 225 226 252 279 290 289
356 347 344 350 342 337 331 335 334 331 340 339 332 319 282 243 241 261 267 282 294 284 273 267 253 248 246 246 241 234 240 231 234 238 236 232 236 224 226 244 268 284 292
321 320 317 318 316 319 315 314 318 313 306 304 306 305 292 270 260 250 245 255 259 264 269 271 266 265 258 262 255 251 253 241 243 250 243 243 247 230 225 221 231 273 281
313 310 310 301 289 296 301 288 285 290 287 285 293 300 299 283 272 273 266 264 265 271 272 271 277 281 274 260 235 245 264 265 254 254 252 251 257 247 244 236 223 231 269
325 321 313 295 287 282 292 295 286 277 282 286 278 299 302 293 277 277 280 281 281 283 286 285 285 302 305 292 264 257 263 263 273 259 265 272 264 258 249 245 240 230 240
305 302 301 300 295 301 305 305 311 305 303 295 283 290 294 294 294 288 283 283 285 290 285 273 273 284 286 279 270 276 274 271 283 288 279 281 275 275 273 259 247 242 234
302 298 302 310 311 308 311 309 310 307 299 294 288 287 297 313 315 309 307 308 308 304 295 278 279 286 282 275 268 277 278 273 285 293 292 291 293 285 279 270 262 252 237
327 325 322 319 312 307 309 308 305 301 304 302 294 293 301 314 304 299 301 305 309 315 318 315 293 294 294 291 290 280 284 285 281 291 291 290 294 291 287 280 274 267 259
330 326 320 316 311 308 305 307 307 305 310 309 296 290 290 288 285 293 305 310 311 306 302 300 293 283 285 289 294 289 285 289 292 293 292 291 277 268 274 277 274 268 267
331 324 319 319 317 317 312 311 309 314 317 321 311 293 288 293 305 309 312 315 318 304 296 315 316 306 292 283 288 285 283 290 303 311 309 300 294 282 269 271 272 271 267
321 317 319 319 318 312 309 313 313 315 320 317 305 305 312 315 314 310 315 333 332 320 326 330 322 317 308 306 303 293 288 299 301 309 313 309 304 302 297 290 284 271 261
317 315 310 306 305 303 303 304 304 312 320 312 306 308 314 315 308 313 326 324 316 320 319 313 318 313 312 322 322 319 298 292 292 293 300 305 312 315 307 301 299 289 276
317 312 308 308 306 307 310 308 316 317 315 313 313 315 317 320 324 329 325 318 314 317 310 309 314 316 317 327 328 323 316 304 299 295 292 297 306 309 310 308 307 300 292
309 304 300 300 308 310 312 320 321 319 317 313 316 317 320 322 329 329 315 310 315 322 318 314 321 323 318 328 331 335 326 310 310 312 313 303 302 308 317 312 308 310 308
318 316 319 328 323 313 321 326 316 319 311 303 302 302 305 304 298 296 301 301 305 308 320 323 320 313 311 323 330 336 312 312 315 322 322 317 314 317 323 312 306 308 310
315 318 318 317 306 310 326 320 315 303 294 304 317 317 313 303 294 302 313 315 321 337 339 331 326 326 323 329 337 343 338 304 314 320 323 325 328 323 321 314 291 287 299
317 318 315 309 311 319 327 315 305 298 309 324 327 319 319 317 333 343 337 343 352 354 346 346 340 336 336 337 334 340 336 315 307 310 316 319 325 326 326 323 317 317 319
305 307 302 307 314 318 317 301 296 309 329 340 331 325 334 341 355 10 358 359 10 4 344 343 335 329 335 334 337 342 344 344 325 311 315 320 324 327 330 339 343 343 341
301 304 310 313 311 312 311 289 295 314 334 333 328 331 346 350 358 5 0 352 347 343 330 329 326 326 334 336 338 341 343 344 340 329 327 330 335 339 333 338 349 353 344
301 303 299 294 298 307 311 305 305 322 332 325 329 336 346 354 355 351 330 308 283 255 266 292 298 318 326 321 320 321 328 332 326 329 340 351 349 351 351 349 348 349 351
303 309 307 304 304 311 311 312 313 306 305 321 324 325 334 346 348 350 352 3 344 345 347 307 277 294 297 320 339 338 333 335 345 7 349 341 341 342 342 342 343 345 343